Regional Weather Roundup
Issued by NWS Cleveland, OH

Home | Current Version | Previous Version | Text Only | Print | Product List | Glossary Off
Versions: 1 2 3 4 5 6 7 8 9 10 11 12 13 14 15 16 17 18 19 20 21 22 23 24 25 26 27 28 29 30 31 32 33 34 35 36 37 38 39 40 41 42 43 44 45 46 47 48 49 50

000
ASUS41 KCLE 242300
RWRCLE
OHIO REGIONAL WEATHER ROUNDUP
NATIONAL WEATHER SERVICE WILMINGTON, OH
700 PM EDT SUN MAY 24 2015

NOTE: "FAIR" INDICATES FEW OR NO CLOUDS BELOW 12,000 FEET WITH NO
SIGNIFICANT WEATHER AND/OR OBSTRUCTIONS TO VISIBILITY.

OHZ001>008-015>018-024>027-034-035-043-044-250000-
   NORTHWEST OHIO

CITY           SKY/WX    TMP DP  RH WIND       PRES   REMARKS
DEFIANCE       MOSUNNY   82  52  35 S10G20    30.08F
FINDLAY        MOSUNNY   82  51  34 S13       30.10F
TOLEDO EXPRESS CLOUDY    81  53  37 S9        30.10F
TOLEDO EXEC    PTSUNNY   82  54  37 S9        30.11F
LIMA           SUNNY     81  51  35 S13       30.10F
$$

OHZ009>014-019>023-028>033-038-089-250000-
   NORTHEAST OHIO

CITY           SKY/WX    TMP DP  RH WIND       PRES   REMARKS
CLE-HOPKINS    CLOUDY    77  50  38 SE8       30.17F
CLE-LAKEFRONT  CLOUDY    78  42  27 SE9       30.15F
CUY CO. ARPT   CLOUDY    77  48  36 S8        30.19F
LORAIN-ELYRIA  PTSUNNY   79  50  36 S10       30.15F
ASHTABULA      CLOUDY    74  49  41 CALM      30.21S
AKRON-CANTON   PTSUNNY   78  48  34 S9        30.20F
WOOSTER        NOT AVBL
MANSFIELD      MOSUNNY   79  52  38 SE13      30.17F
YOUNGSTOWN     CLOUDY    75  46  35 S3        30.21F
$$

OHZ042-051>053-060>062-070>072-077>081-250000-
  SOUTHWEST OHIO

CITY           SKY/WX    TMP DP  RH WIND       PRES   REMARKS
CINC-COVINGTON MOSUNNY   81  52  36 S13G23    30.12F
CINC-LUNKEN    SUNNY     81  52  36 S13G21    30.12F
HAMILTON       SUNNY     84  52  33 S12G18    30.11F
DAYTON         NOT AVBL
WRIGHT-PAT AFB NOT AVBL
DAYTON GENERAL SUNNY     80  51  36 S13       30.12F
WILMINGTON     SUNNY     81  45  28 S14G22    30.14F
$$

OHZ036-037-039>041-045>050-054>059-063>069-073>076-082>088-250000-
  CENTRAL AND SOUTHEAST OHIO

CITY           SKY/WX    TMP DP  RH WIND       PRES   REMARKS
COLUMBUS       MOSUNNY   82  50  32 S12G18    30.15F
OSU AIRPORT    SUNNY     82  47  29 S12       30.14F
BOLTON FIELD   SUNNY     81  52  36 S12G18    30.16F
RICKENBACK AFB NOT AVBL
NEWARK         SUNNY     81  53  37 SE10      30.16F
MARION         SUNNY     81  50  33 S15       30.14F
LANCASTER      SUNNY     81  51  35 S12       30.17F
ZANESVILLE     MOSUNNY   80  51  36 S7        30.18F
NEW PHILLY     PTSUNNY   82  50  32 S6        30.20F
$$


USA.gov is the U.S. government's official web portal to all federal, state and local government web resources and services.